| time (UTC) | temp C | wind direction | speed KPH | gust KPH | rain 1hr cm | rain 24hr cm | rain mn cm | humidity % | barometer mb |
| 20260505224003 | 22 | 15 | 4.8 | 12.9 | 0.00 | 0.00 | 0.00 | 28 | 1011.9 |
| 20260505223719 | 22 | 356 | 6.4 | 12.9 | 0.00 | 0.00 | 0.00 | 27 | 1011.9 |
| 20260505223003 | 23 | 8 | 4.8 | 12.9 | 0.00 | 0.00 | 0.00 | 25 | 1011.9 |
| 20260505222503 | 24 | 40 | 4.8 | 12.9 | 0.00 | 0.00 | 0.00 | 25 | 1011.9 |
| 20260505222003 | 25 | 28 | 8.0 | 16.1 | 0.00 | 0.00 | 0.00 | 26 | 1011.9 |
| 20260505221503 | 24 | 24 | 6.4 | 16.1 | 0.00 | 0.00 | 0.00 | 28 | 1012.0 |
| 20260505221003 | 23 | 50 | 4.8 | 16.1 | 0.00 | 0.00 | 0.00 | 28 | 1012.0 |
| 20260505220716 | 24 | 50 | 4.8 | 16.1 | 0.00 | 0.00 | 0.00 | 28 | 1012.0 |
| 20260505220003 | 23 | 17 | 8.0 | 14.5 | 0.00 | 0.00 | 0.00 | 28 | 1012.1 |
| 20260505215503 | 24 | 1 | 8.0 | 19.3 | 0.00 | 0.00 | 0.00 | 27 | 1012.1 |
| 20260505215003 | 24 | 5 | 6.4 | 19.3 | 0.00 | 0.00 | 0.00 | 26 | 1012.1 |
| 20260505214503 | 23 | 20 | 8.0 | 19.3 | 0.00 | 0.00 | 0.00 | 27 | 1012.1 |
| 20260505214003 | 25 | 25 | 8.0 | 19.3 | 0.00 | 0.00 | 0.00 | 26 | 1012.2 |
| 20260505213503 | 23 | 23 | 8.0 | 25.7 | 0.00 | 0.00 | 0.00 | 30 | 1012.2 |
| 20260505213003 | 23 | 27 | 9.7 | 25.7 | 0.00 | 0.00 | 0.00 | 29 | 1012.2 |
| 20260505212716 | 23 | 25 | 8.0 | 25.7 | 0.00 | 0.00 | 0.00 | 27 | 1012.1 |
| 20260505212217 | 23 | 25 | 4.8 | 19.3 | 0.00 | 0.00 | 0.00 | 26 | 1012.1 |
| 20260505211503 | 24 | 23 | 6.4 | 16.1 | 0.00 | 0.00 | 0.00 | 26 | 1012.2 |
| 20260505211003 | 23 | 9 | 6.4 | 16.1 | 0.00 | 0.00 | 0.00 | 28 | 1012.2 |
| 20260505210503 | 23 | 352 | 8.0 | 19.3 | 0.00 | 0.00 | 0.00 | 30 | 1012.3 |
| 20260505210217 | 23 | 347 | 9.7 | 19.3 | 0.00 | 0.00 | 0.00 | 30 | 1012.4 |
| 20260505205503 | 22 | 342 | 8.0 | 19.3 | 0.00 | 0.00 | 0.00 | 28 | 1012.4 |
| 20260505205003 | 22 | 351 | 6.4 | 19.3 | 0.00 | 0.00 | 0.00 | 29 | 1012.4 |
| 20260505204503 | 23 | 360 | 8.0 | 16.1 | 0.00 | 0.00 | 0.00 | 27 | 1012.5 |
| 20260505204217 | 22 | 358 | 6.4 | 14.5 | 0.00 | 0.00 | 0.00 | 29 | 1012.5 |
| 20260505203718 | 22 | 12 | 6.4 | 20.9 | 0.00 | 0.00 | 0.00 | 29 | 1012.5 |
| 20260505203003 | 23 | 35 | 8.0 | 20.9 | 0.00 | 0.00 | 0.00 | 29 | 1012.6 |
| 20260505202503 | 22 | 46 | 4.8 | 17.7 | 0.00 | 0.00 | 0.00 | 30 | 1012.6 |
| 20260505202003 | 22 | 31 | 4.8 | 17.7 | 0.00 | 0.00 | 0.00 | 31 | 1012.6 |
| 20260505201503 | 21 | 7 | 6.4 | 17.7 | 0.00 | 0.00 | 0.00 | 32 | 1012.7 |
| 20260505201003 | 22 | 358 | 8.0 | 22.5 | 0.00 | 0.00 | 0.00 | 30 | 1012.7 |
| 20260505200503 | 22 | 353 | 6.4 | 22.5 | 0.00 | 0.00 | 0.00 | 32 | 1012.7 |
| 20260505200003 | 22 | 23 | 6.4 | 17.7 | 0.00 | 0.00 | 0.00 | 32 | 1012.8 |
| 20260505195718 | 22 | 29 | 8.0 | 17.7 | 0.00 | 0.00 | 0.00 | 32 | 1012.6 |
| 20260505195003 | 22 | 19 | 8.0 | 17.7 | 0.00 | 0.00 | 0.00 | 31 | 1012.6 |
| 20260505194503 | 22 | 12 | 8.0 | 17.7 | 0.00 | 0.00 | 0.00 | 31 | 1012.7 |
| 20260505194003 | 21 | 3 | 4.8 | 16.1 | 0.00 | 0.00 | 0.00 | 34 | 1012.6 |
| 20260505193503 | 21 | 359 | 4.8 | 16.1 | 0.00 | 0.00 | 0.00 | 34 | 1012.7 |
| 20260505193003 | 21 | 3 | 4.8 | 12.9 | 0.00 | 0.00 | 0.00 | 32 | 1012.6 |
| 20260505192503 | 21 | 29 | 4.8 | 12.9 | 0.00 | 0.00 | 0.00 | 35 | 1012.6 |
| 20260505192003 | 21 | 47 | 4.8 | 12.9 | 0.00 | 0.00 | 0.00 | 35 | 1012.6 |
| 20260505191717 | 21 | 46 | 4.8 | 12.9 | 0.00 | 0.00 | 0.00 | 34 | 1012.7 |
| 20260505191004 | 21 | 63 | 3.2 | 12.9 | 0.00 | 0.00 | 0.00 | 36 | 1012.6 |
| 20260505190503 | 20 | 177 | 4.8 | 11.3 | 0.00 | 0.00 | 0.00 | 36 | 1012.6 |
| 20260505190004 | 21 | 193 | 6.4 | 12.9 | 0.00 | 0.00 | 0.00 | 35 | 1012.5 |
| 20260505185503 | 21 | 234 | 4.8 | 12.9 | 0.00 | 0.00 | 0.00 | 37 | 1012.4 |
| 20260505185003 | 20 | 257 | 4.8 | 11.3 | 0.00 | 0.00 | 0.00 | 39 | 1012.5 |
| 20260505184503 | 18 | 248 | 6.4 | 17.7 | 0.00 | 0.00 | 0.00 | 41 | 1012.5 |
| 20260505184003 | 20 | 244 | 8.0 | 17.7 | 0.00 | 0.00 | 0.00 | 38 | 1012.6 |
| 20260505183717 | 21 | 233 | 8.0 | 14.5 | 0.00 | 0.00 | 0.00 | 38 | 1012.6 |
| 20260505183003 | 20 | 230 | 8.0 | 16.1 | 0.00 | 0.00 | 0.00 | 39 | 1012.7 |
| 20260505182719 | 20 | 229 | 9.7 | 17.7 | 0.00 | 0.00 | 0.00 | 40 | 1012.7 |
| 20260505182003 | 19 | 223 | 8.0 | 17.7 | 0.00 | 0.00 | 0.00 | 45 | 1012.7 |
| 20260505181717 | 19 | 224 | 8.0 | 16.1 | 0.00 | 0.00 | 0.00 | 42 | 1012.8 |
| 20260505181003 | 18 | 224 | 6.4 | 14.5 | 0.00 | 0.00 | 0.00 | 49 | 1012.8 |
| 20260505180719 | 18 | 218 | 6.4 | 14.5 | 0.00 | 0.00 | 0.00 | 47 | 1012.8 |
| 20260505180216 | 17 | 217 | 6.4 | 14.5 | 0.00 | 0.00 | 0.00 | 51 | 1012.8 |
| 20260505175503 | 18 | 226 | 6.4 | 11.3 | 0.00 | 0.00 | 0.00 | 49 | 1012.8 |
| 20260505175003 | 17 | 224 | 6.4 | 12.9 | 0.00 | 0.00 | 0.00 | 51 | 1012.8 |
| 20260505174503 | 17 | 228 | 6.4 | 12.9 | 0.00 | 0.00 | 0.00 | 52 | 1012.8 |
| 20260505174003 | 17 | 239 | 4.8 | 8.0 | 0.00 | 0.00 | 0.00 | 51 | 1012.8 |
| 20260505173503 | 17 | 252 | 3.2 | 8.0 | 0.00 | 0.00 | 0.00 | 53 | 1012.8 |
| 20260505173003 | 16 | 239 | 4.8 | 9.7 | 0.00 | 0.00 | 0.00 | 54 | 1012.8 |
| 20260505172719 | 16 | 230 | 4.8 | 9.7 | 0.00 | 0.00 | 0.00 | 54 | 1012.8 |
| 20260505172003 | 16 | 245 | 4.8 | 11.3 | 0.00 | 0.00 | 0.00 | 54 | 1012.9 |
| 20260505171503 | 15 | 245 | 4.8 | 11.3 | 0.00 | 0.00 | 0.00 | 54 | 1012.9 |
| 20260505171003 | 15 | 214 | 4.8 | 8.0 | 0.00 | 0.00 | 0.00 | 57 | 1012.9 |
| 20260505170503 | 15 | 190 | 4.8 | 9.7 | 0.00 | 0.00 | 0.00 | 55 | 1012.9 |
| 20260505170003 | 14 | 183 | 4.8 | 9.7 | 0.00 | 0.00 | 0.00 | 59 | 1012.8 |
| 20260505165503 | 14 | 207 | 4.8 | 8.0 | 0.00 | 0.00 | 0.00 | 58 | 1012.9 |
| 20260505165003 | 13 | 220 | 3.2 | 8.0 | 0.00 | 0.00 | 0.00 | 61 | 1012.9 |
| 20260505164503 | 13 | 205 | 3.2 | 6.4 | 0.00 | 0.00 | 0.00 | 63 | 1012.9 |
| 20260505164003 | 12 | 209 | 4.8 | 8.0 | 0.00 | 0.00 | 0.00 | 65 | 1012.8 |
| 20260505163503 | 13 | 208 | 4.8 | 8.0 | 0.00 | 0.00 | 0.00 | 64 | 1012.9 |
| 20260505163003 | 12 | 186 | 4.8 | 8.0 | 0.00 | 0.00 | 0.00 | 67 | 1012.8 |
| 20260505162503 | 12 | 177 | 4.8 | 8.0 | 0.00 | 0.00 | 0.00 | 67 | 1012.9 |
| 20260505162219 | 12 | 168 | 4.8 | 8.0 | 0.00 | 0.00 | 0.00 | 68 | 1012.9 |
| 20260505161503 | 11 | 183 | 3.2 | 9.7 | 0.00 | 0.00 | 0.00 | 70 | 1012.8 |
| 20260505161003 | 12 | 190 | 3.2 | 8.0 | 0.00 | 0.00 | 0.00 | 68 | 1012.9 |
| 20260505160503 | 11 | 181 | 4.8 | 8.0 | 0.00 | 0.00 | 0.00 | 68 | 1012.8 |
| 20260505153003 | 10 | 162 | 3.2 | 8.0 | 0.00 | 0.00 | 0.00 | 74 | 1012.7 |
| 20260505152718 | 10 | 159 | 3.2 | 8.0 | 0.00 | 0.00 | 0.00 | 74 | 1012.7 |
| 20260505152003 | 10 | 161 | 3.2 | 9.7 | 0.00 | 0.00 | 0.00 | 75 | 1012.6 |
| 20260505151503 | 10 | 157 | 3.2 | 9.7 | 0.00 | 0.00 | 0.00 | 75 | 1012.6 |
| 20260505151003 | 10 | 144 | 3.2 | 6.4 | 0.00 | 0.00 | 0.00 | 75 | 1012.6 |
| 20260505150503 | 9 | 112 | 1.6 | 4.8 | 0.00 | 0.00 | 0.00 | 75 | 1012.5 |
| 20260505140503 | 8 | 62 | 3.2 | 4.8 | 0.00 | 0.00 | 0.00 | 78 | 1012.1 |
| 20260505130218 | 7 | 45 | 1.6 | 3.2 | 0.00 | 0.00 | 0.00 | 78 | 1011.5 |
| 20260505125003 | 7 | 9 | 1.6 | 4.8 | 0.00 | 0.00 | 0.00 | 56 | 1011.4 |
| 20260505124717 | 8 | 9 | 3.2 | 4.8 | 0.00 | 0.00 | 0.00 | 56 | 1011.4 |
| 20260505124003 | 8 | 5 | 3.2 | 6.4 | 0.00 | 0.00 | 0.00 | 55 | 1011.3 |
| 20260505123503 | 8 | 353 | 3.2 | 6.4 | 0.00 | 0.00 | 0.00 | 56 | 1011.2 |
| 20260505123003 | 8 | 346 | 3.2 | 6.4 | 0.00 | 0.00 | 0.00 | 57 | 1011.2 |
| 20260505122717 | 7 | 342 | 3.2 | 6.4 | 0.00 | 0.00 | 0.00 | 58 | 1011.2 |
| 20260505122003 | 7 | 357 | 4.8 | 8.0 | 0.00 | 0.00 | 0.00 | 61 | 1011.2 |
| 20260505121719 | 7 | 8 | 4.8 | 8.0 | 0.00 | 0.00 | 0.00 | 63 | 1011.2 |
| 20260505121003 | 7 | 61 | 3.2 | 6.4 | 0.00 | 0.00 | 0.00 | 77 | 1011.2 |
| 20260505120503 | 7 | 74 | 1.6 | 4.8 | 0.00 | 0.00 | 0.00 | 80 | 1011.1 |
| 20260505120004 | 7 | 71 | 1.6 | 3.2 | 0.00 | 0.00 | 0.00 | 80 | 1011.1 |
| 20260505115503 | 7 | 71 | 0.0 | 3.2 | 0.00 | 0.00 | 0.00 | 79 | 1011.1 |
| 20260505115003 | 7 | 71 | 0.0 | 3.2 | 0.00 | 0.00 | 0.00 | 79 | 1011.1 |
| 20260505114503 | 7 | 66 | 1.6 | 3.2 | 0.00 | 0.00 | 0.00 | 76 | 1011.1 |
| 20260505114003 | 7 | 53 | 1.6 | 3.2 | 0.00 | 0.00 | 0.00 | 74 | 1011.1 |
| 20260505113718 | 7 | 24 | 1.6 | 4.8 | 0.00 | 0.00 | 0.00 | 71 | 1011.0 |
| 20260505113003 | 8 | 13 | 3.2 | 6.4 | 0.00 | 0.00 | 0.00 | 57 | 1010.9 |
| 20260505112716 | 8 | 19 | 3.2 | 6.4 | 0.00 | 0.00 | 0.00 | 57 | 1010.9 |
| 20260505112003 | 8 | 23 | 3.2 | 4.8 | 0.00 | 0.00 | 0.00 | 66 | 1010.9 |
| 20260505111503 | 8 | 13 | 4.8 | 6.4 | 0.00 | 0.00 | 0.00 | 59 | 1010.9 |
| 20260505111003 | 9 | 13 | 4.8 | 6.4 | 0.00 | 0.00 | 0.00 | 54 | 1010.9 |
| 20260505110503 | 9 | 10 | 4.8 | 8.0 | 0.00 | 0.00 | 0.00 | 53 | 1010.9 |
| 20260505102003 | 11 | 345 | 6.4 | 16.1 | 0.00 | 0.00 | 0.00 | 51 | 1010.6 |
| 20260505101503 | 11 | 352 | 8.0 | 17.7 | 0.00 | 0.00 | 0.00 | 50 | 1010.5 |
| 20260505101219 | 11 | 352 | 8.0 | 20.9 | 0.00 | 0.00 | 0.00 | 50 | 1010.5 |
| 20260505100503 | 11 | 350 | 9.7 | 20.9 | 0.00 | 0.00 | 0.00 | 50 | 1010.3 |
| 20260505100003 | 11 | 352 | 9.7 | 20.9 | 0.00 | 0.00 | 0.00 | 50 | 1010.3 |
| 20260505095503 | 11 | 351 | 9.7 | 20.9 | 0.00 | 0.00 | 0.00 | 50 | 1010.2 |
| 20260505095003 | 11 | 353 | 9.7 | 19.3 | 0.00 | 0.00 | 0.00 | 50 | 1010.1 |
| 20260505094503 | 11 | 355 | 8.0 | 17.7 | 0.00 | 0.00 | 0.00 | 50 | 1010.2 |
| 20260505094003 | 11 | 351 | 8.0 | 22.5 | 0.00 | 0.00 | 0.00 | 50 | 1010.2 |
| 20260505093503 | 11 | 355 | 8.0 | 22.5 | 0.00 | 0.00 | 0.00 | 49 | 1010.2 |
| 20260505093004 | 11 | 357 | 11.3 | 20.9 | 0.00 | 0.00 | 0.00 | 49 | 1010.1 |
| 20260505092716 | 11 | 357 | 11.3 | 20.9 | 0.00 | 0.00 | 0.00 | 48 | 1010.1 |
| 20260505092003 | 11 | 354 | 9.7 | 22.5 | 0.00 | 0.00 | 0.00 | 49 | 1010.0 |
| 20260505091503 | 11 | 357 | 11.3 | 22.5 | 0.00 | 0.00 | 0.00 | 49 | 1009.9 |
| 20260505091003 | 11 | 358 | 11.3 | 22.5 | 0.00 | 0.00 | 0.00 | 49 | 1010.0 |
| 20260505090503 | 11 | 357 | 11.3 | 22.5 | 0.00 | 0.00 | 0.00 | 49 | 1009.9 |
| 20260505090003 | 11 | 359 | 12.9 | 24.1 | 0.00 | 0.00 | 0.00 | 49 | 1010.0 |
| 20260505085717 | 11 | 1 | 14.5 | 27.4 | 0.00 | 0.00 | 0.00 | 48 | 1010.0 |
| 20260505085003 | 11 | 360 | 14.5 | 27.4 | 0.00 | 0.00 | 0.00 | 48 | 1009.8 |
| 20260505084719 | 11 | 1 | 16.1 | 32.2 | 0.00 | 0.00 | 0.00 | 48 | 1009.7 |
| 20260505084003 | 12 | 4 | 16.1 | 32.2 | 0.00 | 0.00 | 0.00 | 48 | 1009.8 |
| 20260505083503 | 12 | 2 | 14.5 | 27.4 | 0.00 | 0.00 | 0.00 | 48 | 1009.8 |
| 20260505083218 | 12 | 2 | 14.5 | 25.7 | 0.00 | 0.00 | 0.00 | 48 | 1009.9 |
| 20260505082503 | 12 | 357 | 12.9 | 25.7 | 0.00 | 0.00 | 0.00 | 47 | 1009.9 |
| 20260505082003 | 12 | 354 | 14.5 | 29.0 | 0.00 | 0.00 | 0.00 | 47 | 1009.9 |
| 20260505081503 | 12 | 360 | 16.1 | 32.2 | 0.00 | 0.00 | 0.00 | 47 | 1009.9 |
| 20260505081003 | 12 | 3 | 17.7 | 32.2 | 0.00 | 0.00 | 0.00 | 47 | 1009.8 |
| 20260505080503 | 12 | 1 | 17.7 | 30.6 | 0.00 | 0.00 | 0.00 | 46 | 1009.7 |
| 20260505080003 | 12 | 357 | 19.3 | 30.6 | 0.00 | 0.00 | 0.00 | 47 | 1009.6 |
| 20260505075503 | 12 | 352 | 17.7 | 30.6 | 0.00 | 0.00 | 0.00 | 47 | 1009.5 |
| 20260505075218 | 12 | 352 | 17.7 | 33.8 | 0.00 | 0.00 | 0.00 | 47 | 1009.6 |
| 20260505074719 | 12 | 355 | 16.1 | 33.8 | 0.00 | 0.00 | 0.00 | 47 | 1009.6 |
| 20260505074004 | 12 | 357 | 17.7 | 32.2 | 0.00 | 0.00 | 0.00 | 47 | 1009.6 |
| 20260505073717 | 12 | 357 | 17.7 | 32.2 | 0.00 | 0.00 | 0.00 | 47 | 1009.6 |
| 20260505073218 | 12 | 355 | 16.1 | 30.6 | 0.00 | 0.00 | 0.00 | 47 | 1009.6 |
| 20260505072719 | 12 | 358 | 16.1 | 30.6 | 0.00 | 0.00 | 0.00 | 47 | 1009.6 |
| 20260505072216 | 12 | 359 | 16.1 | 30.6 | 0.00 | 0.00 | 0.00 | 47 | 1009.6 |
| 20260505071503 | 12 | 355 | 14.5 | 32.2 | 0.00 | 0.00 | 0.00 | 47 | 1009.6 |
| 20260505071003 | 13 | 353 | 16.1 | 30.6 | 0.00 | 0.00 | 0.00 | 46 | 1009.5 |
| 20260505070503 | 13 | 354 | 16.1 | 30.6 | 0.00 | 0.00 | 0.00 | 46 | 1009.5 |
| 20260505070003 | 13 | 357 | 16.1 | 32.2 | 0.00 | 0.00 | 0.00 | 46 | 1009.4 |
| 20260505065717 | 13 | 356 | 16.1 | 32.2 | 0.00 | 0.00 | 0.00 | 46 | 1009.5 |
| 20260505065003 | 13 | 355 | 16.1 | 30.6 | 0.00 | 0.00 | 0.00 | 46 | 1009.5 |
| 20260505064503 | 13 | 356 | 17.7 | 30.6 | 0.00 | 0.00 | 0.00 | 46 | 1009.5 |
| 20260505064003 | 13 | 359 | 16.1 | 30.6 | 0.00 | 0.00 | 0.00 | 46 | 1009.5 |
| 20260505063503 | 13 | 358 | 14.5 | 30.6 | 0.00 | 0.00 | 0.00 | 46 | 1009.5 |
| 20260505063003 | 13 | 357 | 14.5 | 32.2 | 0.00 | 0.00 | 0.00 | 46 | 1009.5 |
| 20260505062503 | 13 | 355 | 16.1 | 32.2 | 0.00 | 0.00 | 0.00 | 46 | 1009.5 |
| 20260505062003 | 13 | 355 | 16.1 | 30.6 | 0.00 | 0.00 | 0.00 | 46 | 1009.6 |
| 20260505061503 | 13 | 357 | 14.5 | 27.4 | 0.00 | 0.00 | 0.00 | 46 | 1009.5 |
| 20260505061003 | 13 | 354 | 11.3 | 25.7 | 0.00 | 0.00 | 0.00 | 47 | 1009.6 |
| 20260505060503 | 13 | 353 | 11.3 | 20.9 | 0.00 | 0.00 | 0.00 | 47 | 1009.6 |
| 20260505060003 | 13 | 355 | 12.9 | 27.4 | 0.00 | 0.00 | 0.00 | 48 | 1009.6 |
| 20260505055716 | 13 | 354 | 12.9 | 27.4 | 0.00 | 0.00 | 0.00 | 48 | 1009.6 |
| 20260505055217 | 14 | 354 | 12.9 | 27.4 | 0.00 | 0.00 | 0.00 | 48 | 1009.6 |
| 20260505054503 | 14 | 356 | 12.9 | 22.5 | 0.00 | 0.00 | 0.00 | 48 | 1009.6 |
| 20260505054003 | 14 | 360 | 12.9 | 25.7 | 0.00 | 0.00 | 0.00 | 49 | 1009.6 |
| 20260505053503 | 14 | 360 | 12.9 | 25.7 | 0.00 | 0.00 | 0.00 | 49 | 1009.5 |
| 20260505053003 | 14 | 1 | 11.3 | 22.5 | 0.00 | 0.00 | 0.00 | 50 | 1009.5 |
| 20260505052718 | 14 | 360 | 11.3 | 22.5 | 0.00 | 0.00 | 0.00 | 51 | 1009.5 |
| 20260505052003 | 14 | 351 | 11.3 | 25.7 | 0.00 | 0.00 | 0.00 | 52 | 1009.6 |
| 20260505051503 | 14 | 351 | 11.3 | 25.7 | 0.00 | 0.00 | 0.00 | 55 | 1009.7 |
| 20260505051003 | 13 | 350 | 9.7 | 25.7 | 0.00 | 0.00 | 0.00 | 57 | 1009.7 |
| 20260505050503 | 13 | 345 | 6.4 | 17.7 | 0.00 | 0.00 | 0.00 | 60 | 1009.7 |
| 20260505041503 | 15 | 325 | 6.4 | 16.1 | 0.00 | 0.00 | 0.00 | 55 | 1009.3 |
| 20260505041003 | 15 | 321 | 6.4 | 12.9 | 0.00 | 0.00 | 0.00 | 55 | 1009.1 |
| 20260505040504 | 15 | 322 | 8.0 | 17.7 | 0.00 | 0.00 | 0.00 | 55 | 1009.0 |
| 20260505040004 | 15 | 323 | 8.0 | 17.7 | 0.00 | 0.00 | 0.00 | 54 | 1008.9 |
| 20260505035503 | 16 | 327 | 8.0 | 17.7 | 0.00 | 0.00 | 0.00 | 51 | 1008.8 |
| 20260505035003 | 16 | 326 | 6.4 | 16.1 | 0.00 | 0.00 | 0.00 | 48 | 1008.8 |
| 20260505034717 | 16 | 327 | 6.4 | 16.1 | 0.00 | 0.00 | 0.00 | 48 | 1008.8 |
| 20260505034003 | 16 | 337 | 6.4 | 14.5 | 0.00 | 0.00 | 0.00 | 48 | 1008.7 |
| 20260505033503 | 16 | 337 | 6.4 | 14.5 | 0.00 | 0.00 | 0.00 | 48 | 1008.5 |
| 20260505033003 | 16 | 337 | 8.0 | 22.5 | 0.00 | 0.00 | 0.00 | 48 | 1008.6 |
| 20260505032503 | 16 | 334 | 9.7 | 22.5 | 0.00 | 0.00 | 0.00 | 48 | 1008.5 |
| 20260505032003 | 16 | 331 | 11.3 | 24.1 | 0.00 | 0.00 | 0.00 | 47 | 1008.4 |
| 20260505031503 | 16 | 329 | 11.3 | 24.1 | 0.00 | 0.00 | 0.00 | 47 | 1008.3 |
| 20260505031003 | 17 | 327 | 11.3 | 24.1 | 0.00 | 0.00 | 0.00 | 47 | 1008.1 |
| 20260505030503 | 16 | 329 | 12.9 | 29.0 | 0.00 | 0.00 | 0.00 | 48 | 1008.1 |
| 20260505030003 | 16 | 331 | 12.9 | 29.0 | 0.00 | 0.00 | 0.00 | 48 | 1008.0 |
| 20260505025503 | 16 | 329 | 14.5 | 29.0 | 0.00 | 0.00 | 0.00 | 49 | 1007.8 |
| 20260505025003 | 16 | 333 | 12.9 | 29.0 | 0.00 | 0.00 | 0.00 | 50 | 1007.7 |
| 20260505024503 | 16 | 331 | 11.3 | 25.7 | 0.00 | 0.00 | 0.00 | 51 | 1007.7 |
| 20260505024003 | 15 | 326 | 11.3 | 25.7 | 0.00 | 0.00 | 0.00 | 54 | 1007.6 |
| 20260505023503 | 15 | 339 | 12.9 | 46.7 | 0.00 | 0.00 | 0.00 | 56 | 1007.8 |
| 20260505023216 | 15 | 350 | 16.1 | 46.7 | 0.00 | 0.00 | 0.00 | 56 | 1008.0 |
| 20260505022503 | 18 | 348 | 14.5 | 41.8 | 0.00 | 0.00 | 0.00 | 49 | 1008.2 |
| 20260505022003 | 18 | 328 | 12.9 | 32.2 | 0.00 | 0.00 | 0.00 | 43 | 1008.1 |
| 20260505021503 | 18 | 320 | 12.9 | 27.4 | 0.00 | 0.00 | 0.00 | 44 | 1007.6 |
| 20260505021003 | 18 | 320 | 11.3 | 22.5 | 0.00 | 0.00 | 0.00 | 45 | 1007.7 |
| 20260505020503 | 18 | 316 | 12.9 | 29.0 | 0.00 | 0.00 | 0.00 | 47 | 1007.6 |
| 20260505020003 | 18 | 308 | 12.9 | 29.0 | 0.00 | 0.00 | 0.00 | 47 | 1007.5 |
| 20260505015503 | 18 | 308 | 11.3 | 25.7 | 0.00 | 0.00 | 0.00 | 49 | 1007.5 |
| 20260505015003 | 17 | 313 | 11.3 | 25.7 | 0.00 | 0.00 | 0.00 | 51 | 1007.6 |
| 20260505014503 | 17 | 318 | 12.9 | 25.7 | 0.00 | 0.00 | 0.00 | 53 | 1007.6 |
| 20260505014003 | 17 | 317 | 12.9 | 27.4 | 0.00 | 0.00 | 0.00 | 53 | 1007.6 |
| 20260505013719 | 18 | 315 | 12.9 | 27.4 | 0.00 | 0.00 | 0.00 | 54 | 1007.7 |
| 20260505013003 | 18 | 318 | 14.5 | 33.8 | 0.00 | 0.00 | 0.00 | 48 | 1007.9 |
| 20260505012503 | 18 | 319 | 14.5 | 33.8 | 0.00 | 0.00 | 0.00 | 46 | 1007.9 |
| 20260505012003 | 18 | 327 | 16.1 | 29.0 | 0.00 | 0.00 | 0.00 | 46 | 1007.9 |
| 20260505011503 | 18 | 324 | 14.5 | 29.0 | 0.00 | 0.00 | 0.00 | 46 | 1007.8 |
| 20260505011003 | 20 | 316 | 14.5 | 27.4 | 0.00 | 0.00 | 0.00 | 40 | 1007.7 |
| 20260505010717 | 20 | 315 | 14.5 | 29.0 | 0.00 | 0.00 | 0.00 | 39 | 1007.8 |
| 20260505010003 | 21 | 320 | 11.3 | 29.0 | 0.00 | 0.00 | 0.00 | 36 | 1007.8 |
| 20260505005503 | 21 | 314 | 9.7 | 22.5 | 0.00 | 0.00 | 0.00 | 36 | 1007.7 |
| 20260505005219 | 21 | 315 | 9.7 | 22.5 | 0.00 | 0.00 | 0.00 | 35 | 1007.7 |
| 20260505004503 | 22 | 318 | 9.7 | 19.3 | 0.00 | 0.00 | 0.00 | 32 | 1007.8 |
| 20260505004003 | 22 | 318 | 9.7 | 22.5 | 0.00 | 0.00 | 0.00 | 33 | 1007.8 |
| 20260505003503 | 23 | 304 | 9.7 | 24.1 | 0.00 | 0.00 | 0.00 | 31 | 1007.6 |
| 20260505003003 | 22 | 293 | 9.7 | 24.1 | 0.00 | 0.00 | 0.00 | 34 | 1007.5 |
| 20260505002503 | 23 | 299 | 9.7 | 25.7 | 0.00 | 0.00 | 0.00 | 32 | 1007.5 |
| 20260505002217 | 23 | 305 | 11.3 | 25.7 | 0.00 | 0.00 | 0.00 | 32 | 1007.4 |
| 20260505001503 | 23 | 308 | 11.3 | 29.0 | 0.00 | 0.00 | 0.00 | 31 | 1007.4 |
| 20260505001003 | 23 | 311 | 9.7 | 29.0 | 0.00 | 0.00 | 0.00 | 29 | 1007.5 |
| 20260505000716 | 24 | 308 | 9.7 | 29.0 | 0.00 | 0.00 | 0.00 | 30 | 1007.5 |
| 20260505000003 | 23 | 295 | 4.8 | 16.1 | 0.00 | 0.00 | 0.00 | 30 | 1007.6 |
| 20260504235503 | 22 | 289 | 4.8 | 12.9 | 0.00 | 0.00 | 0.00 | 30 | 1007.7 |
| 20260504235003 | 21 | 295 | 3.2 | 9.7 | 0.00 | 0.00 | 0.00 | 29 | 1007.7 |
| 20260504234503 | 22 | 4 | 4.8 | 9.7 | 0.00 | 0.00 | 0.00 | 26 | 1007.8 |
| 20260504234003 | 22 | 52 | 4.8 | 14.5 | 0.00 | 0.00 | 0.00 | 26 | 1007.9 |
| 20260504233503 | 23 | 57 | 6.4 | 14.5 | 0.00 | 0.00 | 0.00 | 26 | 1007.9 |
| 20260504233003 | 23 | 46 | 9.7 | 29.0 | 0.00 | 0.00 | 0.00 | 27 | 1007.9 |
| 20260504232716 | 22 | 40 | 11.3 | 29.0 | 0.00 | 0.00 | 0.00 | 26 | 1007.9 |
| 20260504232217 | 22 | 35 | 12.9 | 29.0 | 0.00 | 0.00 | 0.00 | 27 | 1007.8 |
| 20260504231503 | 23 | 28 | 14.5 | 24.1 | 0.00 | 0.00 | 0.00 | 26 | 1007.9 |
| 20260504231003 | 23 | 30 | 12.9 | 24.1 | 0.00 | 0.00 | 0.00 | 25 | 1007.8 |
| 20260504230716 | 23 | 36 | 11.3 | 24.1 | 0.00 | 0.00 | 0.00 | 26 | 1007.9 |
| 20260504230003 | 24 | 27 | 9.7 | 24.1 | 0.00 | 0.00 | 0.00 | 26 | 1008.0 |
| 20260504225503 | 23 | 25 | 9.7 | 20.9 | 0.00 | 0.00 | 0.00 | 25 | 1008.1 |
| 20260504225003 | 24 | 29 | 9.7 | 17.7 | 0.00 | 0.00 | 0.00 | 24 | 1008.1 |
| 20260504224503 | 24 | 10 | 9.7 | 25.7 | 0.00 | 0.00 | 0.00 | 24 | 1008.2 |